Weather History for Buffalo, NY

Change the Weather History Date:

Friday, March 22, 2013

  Actual Average Record
Temperature  
Mean Temperature 28 °F 36 °F  
Max Temperature 31 °F 44 °F 80 °F (2012)
Min Temperature 25 °F 28 °F -3 °F (1885)
Degree Days  
Heating Degree Days 37 29  
Month to date heating degree days 740 718  
Since 1 July heating degree days 5060 5462  
Cooling Degree Days 0 0  
Month to date cooling degree days 0 0  
Year to date cooling degree days 0 0  
Moisture  
Dew Point 23 °F    
Average Humidity 80    
Maximum Humidity 88    
Minimum Humidity 72    
Precipitation  
Precipitation 0.06 in 0.09 in 0.61 in (1949)
Month to date precipitation 0.69 2.00  
Year to date precipitation 6.24 7.67  
Snow  
Snow 1.10 in 0.30 in 6.80 in (1977)
Month to date snowfall 8.4 10.3  
Since 1 July snowfall 57.1 89.1  
Snow Depth T in    
Sea Level Pressure  
Sea Level Pressure 29.85 in    
Wind  
Wind Speed 14 mph (WSW)    
Max Wind Speed 23 mph    
Max Gust Speed 29 mph    
Visibility 5 miles    
Events Snow    
T = Trace of Precipitation, MM = Missing Value Source: NWS Daily Summary

Daily Weather History Graph

Daily Weather History Graph

Search for Another Location

Airport:

Trip Planner

Search our weather history database for the weather conditions in past years. The results will help you decide how hot, cold, wet, or windy it might be!

Date:

Astronomy

Mar. 22, 2013 Rise Set
Actual Time 7:14 AM EDT 7:29 PM EDT
Civil Twilight 6:45 AM EDT 7:58 PM EDT
Nautical Twilight 6:12 AM EDT 8:31 PM EDT
Astronomical Twilight 5:38 AM EDT 9:05 PM EDT
Moon 2:49 PM EDT (3/22) 4:19 AM EDT (3/22)
Length of Visible Light 13h 12m
Length of Day
12h 15m
Waxing Gibbous, 77% of the Moon is Illuminated
Mar 22
Waxing Gibbous
Mar 27
Full
Apr 3
Last Quarter
Apr 10
New
Apr 18
First Quarter

Hourly Weather History & Observations

Time (EDT) Temp. Windchill Dew Point Humidity Pressure Visibility Wind Dir Wind Speed Gust Speed Precip Events Conditions
12:54 AM 26.1 °F 15.6 °F 19.9 °F 78% 29.79 in 9.0 mi West 11.5 mph - 0.00 in Snow Light Snow
1:54 AM 25.0 °F 13.6 °F 21.0 °F 85% 29.79 in 6.0 mi West 12.7 mph - 0.00 in Snow Light Snow
2:50 AM 24.8 °F 13.4 °F 21.2 °F 86% 29.75 in 5.0 mi West 12.7 mph - 0.00 in Snow Light Snow
2:54 AM 25.0 °F 12.6 °F 21.0 °F 85% 29.79 in 5.0 mi West 15.0 mph - 0.00 in Snow Light Snow
3:54 AM 25.0 °F 13.1 °F 21.0 °F 85% 29.78 in 5.0 mi West 13.8 mph - 0.00 in Snow Light Snow
4:54 AM 25.0 °F 14.2 °F 21.0 °F 85% 29.78 in 9.0 mi West 11.5 mph - 0.00 in Snow Light Snow
5:54 AM 26.1 °F 14.5 °F 21.0 °F 81% 29.78 in 9.0 mi West 13.8 mph 21.9 mph 0.00 in Snow Light Snow
6:47 AM 26.6 °F 13.8 °F 21.2 °F 80% 29.76 in 6.0 mi West 17.3 mph 23.0 mph 0.00 in Snow Light Snow
6:54 AM 26.1 °F 15.6 °F 21.0 °F 81% 29.79 in 6.0 mi West 11.5 mph 23.0 mph 0.00 in Snow Light Snow
7:24 AM 26.6 °F 15.2 °F 21.2 °F 80% 29.77 in 2.0 mi West 13.8 mph 23.0 mph 0.00 in Snow Light Snow
7:30 AM 26.6 °F 15.2 °F 21.2 °F 80% 29.77 in 1.5 mi West 13.8 mph 25.3 mph 0.00 in Snow Light Snow
7:54 AM 26.1 °F 14.0 °F 21.9 °F 84% 29.81 in 1.5 mi West 15.0 mph 24.2 mph 0.00 in Snow Light Snow
8:33 AM 26.6 °F 14.7 °F 21.2 °F 80% 29.79 in 4.0 mi West 15.0 mph - 0.00 in Snow Light Snow
8:54 AM 26.1 °F 14.5 °F 21.9 °F 84% 29.83 in 1.0 mi West 13.8 mph - 0.00 in Snow Light Snow
9:19 AM 26.6 °F 14.3 °F 21.2 °F 80% 29.80 in 0.8 mi West 16.1 mph 21.9 mph 0.00 in Snow Light Snow
9:32 AM 26.6 °F 15.7 °F 23.0 °F 86% 29.80 in 1.0 mi WSW 12.7 mph - 0.00 in Snow Light Snow
9:54 AM 27.0 °F 16.1 °F 23.0 °F 85% 29.84 in 1.0 mi WSW 12.7 mph - 0.00 in Snow Light Snow
10:00 AM 26.6 °F 15.7 °F 23.0 °F 86% 29.81 in 0.8 mi West 12.7 mph - 0.00 in Snow Light Snow
10:16 AM 26.6 °F 15.2 °F 23.0 °F 86% 29.81 in 1.0 mi WSW 13.8 mph - 0.00 in Snow Light Snow
10:28 AM 26.6 °F 16.2 °F 23.0 °F 86% 29.82 in 1.2 mi West 11.5 mph - 0.00 in Snow Light Snow
10:43 AM 26.6 °F 16.2 °F 23.0 °F 86% 29.82 in 2.0 mi West 11.5 mph - 0.00 in Snow Light Snow
10:54 AM 27.0 °F 15.6 °F 23.0 °F 85% 29.85 in 3.0 mi WSW 13.8 mph 20.7 mph 0.00 in Snow Light Snow
11:11 AM 26.6 °F 15.7 °F 23.0 °F 86% 29.82 in 5.0 mi WSW 12.7 mph - 0.00 in Snow Light Snow
11:23 AM 26.6 °F 16.8 °F 23.0 °F 86% 29.82 in 8.0 mi West 10.4 mph - 0.00 in Snow Light Snow
11:54 AM 28.0 °F 18.6 °F 24.1 °F 85% 29.86 in 4.0 mi WSW 10.4 mph - 0.00 in Snow Light Snow
12:36 PM 28.4 °F 19.1 °F 24.8 °F 86% 29.83 in 2.0 mi WSW 10.4 mph - 0.00 in Snow Light Snow
12:43 PM 28.4 °F 18.5 °F 24.8 °F 86% 29.83 in 1.5 mi WSW 11.5 mph - 0.01 in Snow Light Snow
12:54 PM 28.9 °F 18.2 °F 25.0 °F 85% 29.86 in 1.0 mi WSW 13.8 mph - 0.01 in Snow Light Snow
1:09 PM 28.4 °F 18.0 °F 24.8 °F 86% 29.84 in 1.5 mi WSW 12.7 mph - 0.00 in Snow Light Snow
1:13 PM 28.4 °F 17.0 °F 24.8 °F 86% 29.84 in 4.0 mi West 15.0 mph - 0.00 in Snow Light Snow
1:54 PM 30.0 °F 21.1 °F 24.1 °F 79% 29.87 in 5.0 mi WSW 10.4 mph 19.6 mph 0.00 in Snow Light Snow
2:54 PM 30.0 °F 17.9 °F 23.0 °F 75% 29.86 in 9.0 mi WSW 18.4 mph 24.2 mph 0.00 in Snow Light Snow
3:54 PM 30.0 °F 18.3 °F 24.1 °F 79% 29.87 in 10.0 mi WSW 17.3 mph 26.5 mph 0.00 in   Overcast
4:54 PM 30.9 °F 19.4 °F 24.1 °F 76% 29.88 in 10.0 mi WSW 17.3 mph - 0.00 in Snow Light Snow
5:43 PM 30.2 °F 16.8 °F 24.8 °F 80% 29.86 in 10.0 mi WSW 23.0 mph 28.8 mph 0.00 in Snow Light Snow
5:54 PM 30.0 °F 18.3 °F 25.0 °F 82% 29.90 in 10.0 mi WSW 17.3 mph 27.6 mph 0.00 in Snow Light Snow
6:28 PM 30.2 °F 19.3 °F 24.8 °F 80% 29.88 in 2.0 mi WSW 15.0 mph 23.0 mph 0.00 in Snow Light Snow
6:34 PM 30.2 °F 20.8 °F 24.8 °F 80% 29.88 in 1.2 mi WSW 11.5 mph 23.0 mph 0.00 in Snow Light Snow
6:52 PM 30.2 °F 19.3 °F 26.6 °F 86% 29.88 in 1.8 mi WSW 15.0 mph - 0.00 in Snow Light Snow
6:54 PM 30.0 °F 19.1 °F 26.1 °F 85% 29.91 in 1.8 mi WSW 15.0 mph - 0.00 in Snow Light Snow
7:12 PM 30.2 °F 18.9 °F 26.6 °F 86% 29.89 in 3.0 mi WSW 16.1 mph - 0.00 in Snow Light Snow
7:34 PM 30.2 °F 19.3 °F 24.8 °F 80% 29.90 in 9.0 mi WSW 15.0 mph 26.5 mph 0.00 in Snow Light Snow
7:54 PM 30.0 °F 20.0 °F 25.0 °F 82% 29.94 in 8.0 mi WSW 12.7 mph - 0.00 in Snow Light Snow
8:54 PM 30.0 °F 19.5 °F 24.1 °F 79% 29.96 in 8.0 mi WSW 13.8 mph 23.0 mph 0.00 in Snow Light Snow
9:54 PM 30.0 °F 20.0 °F 24.1 °F 79% 29.96 in 5.0 mi WSW 12.7 mph - 0.00 in Snow Light Snow
10:54 PM 28.9 °F 20.4 °F 23.0 °F 78% 29.97 in 10.0 mi West 9.2 mph - 0.00 in Snow Light Snow
11:54 PM 28.9 °F 19.2 °F 24.1 °F 82% 29.97 in 10.0 mi West 11.5 mph - 0.00 in Snow Light Snow